Torna al catalogo

SL-12 R/B

AUX MOTOR

AttivoHEO
NORAD 15053·ROCKET BODY·🇷🇺 Russia

Lanciato May 19, 1984 da Baikonur Cosmodrome

Loading…

Prossimi Passaggi (prossime 24 ore)

TLE

AggiornatoSource: Space-Track

Epoca: Sep 12, 2026, 17:30 UTC

1 15053U 84047G   26255.72926062  .00000580  00000-0  41428-3 0  9996
2 15053  52.0918  57.1399 5502653  65.7052 341.2710  4.70632552688190

Traccia SL-12 R/B in tempo reale con AllMySat

Download on the App Store